Regional Weather Roundup
Issued by NWS

Home | Current Version | Previous Version | Graphics & Text | Print | Product List | Glossary On
Versions: 1 2 3 4 5 6 7 8 9 10 11 12 13 14 15 16 17 18 19 20 21 22 23 24 25 26 27 28 29 30 31 32 33 34 35 36 37 38 39 40 41 42 43 44 45 46 47 48 49 50
000
ASUS43 KIND 232009
RWRIN

WEATHER ROUNDUP FOR INDIANA
NATIONAL WEATHER SERVICE INDIANAPOLIS IN
400 PM EDT WED APR 23 2014

NOTE: "FAIR" INDICATES FEW OR NO CLOUDS BELOW 12,000 FEET WITH NO
SIGNIFICANT WEATHER AND/OR OBSTRUCTIONS TO VISIBILITY.

* - STATION DOES NOT REPORT WEATHER SUCH AS PRECIPITATION OR FOG.

+ - STATION NOT QUALITY CONTROLLED BY THE NATIONAL WEATHER SERVICE.
    USE DATA WITH CAUTION...ESPECIALLY DEWPOINT AND RELATIVE
    HUMIDITY OBSERVATIONS.

INZ001>003-010>013-019-020-232100-
NORTHWEST INDIANA

CITY           SKY/WX    TMP DP  RH WIND       PRES   REMARKS
GARY /AIRPORT/ MOSUNNY   45  30  57 N14       30.16F
LA PORTE +     SUNNY     48  32  53 N10       30.13F
MICHIGAN CITY+ SUNNY     41  30  65 N7        30.16F
MONTICELLO +   SUNNY     57  29  34 CALM      30.10S
RENSSELAER +   SUNNY     55  27  33 CALM      30.11F
VALPARAISO     SUNNY     48  30  49 N8        30.13F

$$

LMZ046-743>745-232100-
SOUTHERN LAKE MICHIGAN

STATION/POSITION TIME  TEMP WIND        PRES
                       AIR  DIR/SP/G
                 (UTC) (F)  (DEG/KT/KT) (MB)
MICHIGAN CITY    2000   38  360/ 11/ 12   N/A

$$

INZ004-005-014>016-021>024-232100-
NORTH CENTRAL INDIANA

CITY           SKY/WX    TMP DP  RH WIND       PRES   REMARKS
GOSHEN         SUNNY     56  29  35 MISG      30.10F
LOGANSPORT +   SUNNY     57  27  30 N5        30.10F
PERU/GRISSOM   SUNNY     57  30  35 VRB5      30.09F
ROCHESTER +    SUNNY     59  28  31 N8G16     30.10F
SOUTH BEND     SUNNY     53  34  48 NW12G17   30.13S
WARSAW +       SUNNY     54  30  40 NE3       30.10F

$$

INZ006>009-017-018-025>027-232100-
NORTHEAST INDIANA

CITY           SKY/WX    TMP DP  RH WIND       PRES   REMARKS
ANGOLA *+      SUNNY     55  28  35 NE8       30.09S
AUBURN +       SUNNY     57  27  30 N10       30.10S
FORT WAYNE     MOSUNNY   58  30  34 NE7G16    30.09F

$$

INZ028-029-035-036-043>045-051>053-232100-
WEST CENTRAL INDIANA

CITY           SKY/WX    TMP DP  RH WIND       PRES   REMARKS
GREENCASTLE +  SUNNY     59  32  36 E6        30.09S
LAFAYETTE      SUNNY     57  27  31 MISG      30.10S
TERRE HAUTE    SUNNY     61  29  29 VRB5      30.07F

$$

INZ030>032-037>040-046>048-054>057-064-065-232100-
CENTRAL INDIANA

CITY           SKY/WX    TMP DP  RH WIND       PRES   REMARKS
ANDERSON       SUNNY     55  30  38 N9        30.09
CP ATTERBURY + SUNNY     57  32  38 NW7       30.09S
INDIANAPOLIS   MOSUNNY   56  29  35 VRB5      30.08F
-EAGLE CREEK   SUNNY     57  28  33 VRB5      30.08F
KOKOMO *+      SUNNY     57  30  35 NE9       30.09F
MARION +       SUNNY     56  26  31 NE7       30.09F
MT COMFORT *+  SUNNY     55  32  41 N5        30.09S
SHELBYVILLE    SUNNY     60  32  34 VRB6      30.08F
ZIONSVILLE +   SUNNY     57  26  30 E6        30.10S

$$

INZ033-034-041-042-049-050-058-059-232100-
EAST CENTRAL INDIANA

CITY           SKY/WX    TMP DP  RH WIND       PRES   REMARKS
MUNCIE         SUNNY     56  30  37 N6        30.08F

$$

INZ060-061-067>069-081>083-085>088-232100-
SOUTHWEST INDIANA

CITY           SKY/WX    TMP DP  RH WIND       PRES   REMARKS
EVANSVILLE     SUNNY     64  28  25 N8        30.07F
HUNTINGBURG *+ SUNNY     61  36  39 E3        30.07S
WASHINGTON +   SUNNY     60  30  31 NE3       30.06F

$$

INZ062-063-066-070>080-084-089>092-232100-
SOUTH CENTRAL AND SOUTHEAST INDIANA

CITY           SKY/WX    TMP DP  RH WIND       PRES   REMARKS
BLOOMINGTON    SUNNY     61  24  24 VRB5      30.07F
NORTH VERNON + SUNNY     59  28  31 NW5       30.08F
SEYMOUR +      SUNNY     55  16  21 N9        30.08

$$




USA.gov is the U.S. government's official web portal to all federal, state and local government web resources and services.